Regional Weather Roundup
Issued by NWS

Home | Current Version | Previous Version | Text Only | Print | Product List | Glossary On
Versions: 1 2 3 4 5 6 7 8 9 10 11 12 13 14 15 16 17 18 19 20 21 22 23 24 25 26 27 28 29 30 31 32 33 34 35 36 37 38 39 40 41 42 43 44 45 46 47 48 49 50
000
ASCA44 KEWX 190120
RWRMX

LATIN AMERICA AND CARIBBEAN REGIONAL WEATHER ROUNDUP
NATIONAL WEATHER SERVICE AUSTIN/SAN ANTONIO TX
700 PM CST WED JAN 18 2017

NOTE: "FAIR" INDICATED FEW OR NO CLOUDS BELOW 12,000 FEET WITH NO
SIGNIFICANT WEATHER AND/OR OBSTRUCTIONS TO VISIBILITY.

BAJA CALIFORNIA

CITY           SKY/WX    TMP DP  RH WIND       PRES   REMARKS
LORETO           N/A    N/A N/A N/A MISG        N/A
LA PAZ         CLEAR     68  50  52 NE9       30.06S
MEXICALI       MOCLDY    63  36  36 SE6       30.02S
S.J. DEL CABO  PTCLDY    66  54  63 SE8       30.06R
TIJUANA        CLOUDY    55  48  76 W10       30.15R

NORTHWESTERN MEXICO

CITY           SKY/WX    TMP DP  RH WIND       PRES   REMARKS
CULIACAN       PTCLDY    68  50  52 SW7       30.00F
DURANGO        MOCLDY    59  34  38 SW14      30.19R
GUAYMAS        CLEAR     66  55  68 S12       30.00R
HERMOSILLO     CLEAR     70  43  37 W6        30.06R
CD. JUAREZ     PTCLDY    52  37  58 W12       29.97S
LOS MOCHIS     CLEAR     64  52  63 NW12      30.04S
OBREGON        CLEAR     64  46  52 W7        30.00S

NORTHEASTERN MEXICO

CITY           SKY/WX    TMP DP  RH WIND       PRES   REMARKS
CHIHUAHUA      CLEAR     55  28  35 E9        30.04S
MATAMOROS      CLOUDY    66  59  77 N5        29.98R
MONCLOVA       CLOUDY    59  50  72 NE5       30.04
MONTERREY      CLOUDY    61  55  82 SE6       30.01R
NUEVO LAREDO   MOCLDY    64  50  59 CALM      30.01R
PIEDRAS NEGRAS PTCLDY    55  45  67 NW7       30.03S
REYNOSA        CLOUDY    63  54  72 N6        29.99R
SALTILLO       MOCLDY    57  48  72 CALM      30.12R
TORREON        MOCLDY    70  36  28 NW9       30.01R
CD. VICTORIA   CLOUDY    70  57  64 NW5       29.97R

WESTERN MEXICO

CITY           SKY/WX    TMP DP  RH WIND       PRES   REMARKS
AGUASCALIENTES CLOUDY    64  34  32 SW10      30.23R
COLIMA         CLOUDY    73  63  68 SW6       30.07R
DEL BAJIO      CLOUDY    66  39  37 W9        30.24S
GUADALAJARA    CLOUDY    68  37  32 W7        30.18R
MANZANILLO     MOCLDY    77  68  73 NW7       29.91R
MAZATLAN       CLOUDY    70  54  56 NW3       30.01S
P. VALLARTA    MOCLDY    73  66  78 SW6       29.98R
URUAPAN        MOCLDY    68  48  49 CALM      30.18R
ZACATECAS      LGT RAIN  57  37  47 SW23      30.26R

CENTRAL MEXICO

CITY           SKY/WX    TMP DP  RH WIND       PRES   REMARKS
CUERNAVACA     PTCLDY    73  46  38 CALM      30.08R
MEXICO CITY    CLEAR     66  39  37 SE10      30.24R
MORELIA        PTCLDY    63  41  45 S3        30.19S
POZA RICA      CLEAR     75  70  83 CALM      29.96R
PUEBLA         CLEAR     57  41  54 S9        30.27R
QUERETARO      MOCLDY    64  41  42 NW8       30.22S
S. LUIS POTOSI CLOUDY    66  30  26 SW5       30.17R
TAMPICO        MOCLDY    75  72  88 E12       29.93R
TOLUCA         PTCLDY    55  39  54 NW2       30.35R

SOUTHERN MEXICO

CITY           SKY/WX    TMP DP  RH WIND       PRES   REMARKS
ACAPULCO       CLEAR     82  68  61 W10       29.88R
B. DE HUATULCO MOCLDY    79  68  69 S12       29.96R
OAXACA         CLEAR     73  39  29 SE8       30.13R
P. ESCONDIDO   CLEAR     82  73  74 S10         N/A
VERACRUZ       PTCLDY    77  73  88 E6        29.92R
ZIHUATANEJO    PTCLDY    82  64  54 CALM      29.91R

YUCATAN PENINSULA

CITY           SKY/WX    TMP DP  RH WIND       PRES   REMARKS
CAMPECHE       CLEAR     81  75  83 N12       29.91R
CANCUN         PTCLDY    75  70  83 E3        30.05R
CHETUMAL       PTCLDY    79  72  78 SE6       30.01R
CD. DEL CARMEN CLEAR     84  66  54 SE10      29.91R
COZUMEL        PTCLDY    73  70  88 SE3       30.02R
MERIDA         PTCLDY    81  68  65 NE5       29.96R
MINATITLAN     CLEAR     75  68  78 N14       29.90R
TAPACHULA      MOCLDY    81  73  78 CALM      29.89R
TUX. GUTIERREZ MOCLDY    81  63  54 W9        29.92R
VILLAHERMOSA   CLEAR     77  72  83 CALM      29.91R

CENTRAL AMERICA

CITY           SKY/WX    TMP DP  RH WIND       PRES   REMARKS
BELIZE CITY    PTCLDY    77  73  88 E5        29.99S
MANAGUA        PTCLDY    79  68  69 NE5       29.89R

CARIBBEAN

CITY           SKY/WX    TMP DP  RH WIND       PRES   REMARKS
ARUBA          PTCLDY    77  72  83 E9        29.94S
CURACAO        PTCLDY    79  72  78 E12       29.97R
KINGSTON       PTCLDY    81  72  74 E3        30.00S
SAN JUAN       PTCLDY    75  64  69 CALM      30.06R
SANTO DOMINGO  PTCLDY    70  63  78 NE7       30.03R
ST. CROIX      PTCLDY    66  61  82 N3        30.05
ST. KITTS      PTCLDY    75  68  78 NE6       30.00S
ST. THOMAS     CLEAR     73  61  64 NE3       30.04

$$





USA.gov is the U.S. government's official web portal to all federal, state and local government web resources and services.